Hourly Data Report for January 24, 2022

TORONTO CITY
ONTARIO
Current Station Operator: ECCC - MSC

43°40'00.000" N
79°24'00.000" W
112.50 m
6158355
71508
XTO

Download Data

Hourly Data (January 2022)
Hourly Data Report for January 24, 2022
TIME
LST
Temp Definition
°C
Dew Point Definition
°C
Rel Hum Definition
%
Precip. Amount Definition
mm

Wind Dir Definition
10's deg

Wind Spd Definition
km/h
Visibility Definition
km
Stn Press Definition
kPa
Hmdx Definition


Wind Chill Definition


Weather Definition


00:00 -14.0 -18.5 68 0.0       99.97     LegendNANA
01:00 -14.4 -18.6 71 0.0       99.93     LegendNANA
02:00 -14.1 -18.3 70 0.0       99.87     LegendNANA
03:00 -13.4 -17.7 70 0.0       99.85     LegendNANA
04:00 -12.6 -17.0 70 0.0       99.85     LegendNANA
05:00 -12.1 -16.4 70 0.0       99.85     LegendNANA
06:00 -10.5 -14.9 70 0.0       99.81     LegendNANA
07:00 -10.2 -14.1 73 0.0       99.75     LegendNANA
08:00 -7.6 -13.7 62 0.0       99.71     LegendNANA
09:00 -6.9 -12.7 63 0.0       99.68     LegendNANA
10:00 -8.5 -12.8 71 0.0       99.64     LegendNANA
11:00 -6.7 -11.1 71 0.0       99.57     LegendNANA
12:00 -6.8 -11.7 68 0.0       99.44     LegendNANA
13:00 -6.3 -9.7 77 0.0       99.31     LegendNANA
14:00 -5.9 -7.4 89 0.6       99.23     LegendNANA
15:00 -5.8 -7.7 86 0.8       99.19     LegendNANA
16:00 -5.6 -7.5 87 0.9       99.18     LegendNANA
17:00 -5.4 -7.9 83 0.4       99.20     LegendNANA
18:00 -5.0 -6.5 89 0.5       99.19     LegendNANA
19:00 -4.8 -6.5 88 0.6       99.18     LegendNANA
20:00 -4.7 -6.1 90 0.4       99.16     LegendNANA
21:00 -4.4 -6.0 88 0.1       99.15     LegendNANA
22:00 -4.1 -5.7 88 0.1       99.15     LegendNANA
23:00 -3.9 -5.7 88 0.1       99.18     LegendNANA

Notes on Data Quality.

Legend

  • E = Estimated
  • M = Missing
  • NA = Not Available*
  • [empty] = Indicates an unobserved value
Date modified: